Weather History for KRCA - March, 2014

Change the Weather History Date:

Sunday, March 2, 2014

  Actual Average Record
Temperature  
Mean Temperature -6 °F -  
Max Temperature 1 °F 33 °F 60 °F (2013)
Min Temperature -14 °F 15 °F -14 °F (2014)
Degree Days  
Heating Degree Days 72    
Moisture  
Dew Point -13 °F    
Average Humidity 76    
Maximum Humidity 84    
Minimum Humidity 70    
Precipitation  
Precipitation 0.01 in - - ()
Sea Level Pressure  
Sea Level Pressure 30.42 in    
Wind  
Wind Speed 7 mph (SE)    
Max Wind Speed 16 mph    
Max Gust Speed -    
Visibility 8 miles    
Events Snow    
Averages and records for this station are not official NWS values.
T = Trace of Precipitation, MM = Missing Value Source: NWS Daily Summary

Daily Weather History Graph

Daily Weather History Graph

Search for Another Location

Airport or City:

Trip Planner

Search our weather history database for the weather conditions in past years. The results will help you decide how hot, cold, wet, or windy it might be!

Date:

Astronomy

Mar. 02, 2014 Rise Set
Actual Time 6:27 AM MST 5:42 PM MST
Civil Twilight 5:58 AM MST 6:11 PM MST
Nautical Twilight 5:25 AM MST 6:44 PM MST
Astronomical Twilight 4:51 AM MST 7:18 PM MST
Moon 6:55 AM MST (3/2) 7:46 PM MST (3/2)
Length of Visible Light 12h 12m
Length of Day
11h 14m
Waxing Crescent, 3% of the Moon is Illuminated
Mar 2
Waxing Crescent
Mar 8
First Quarter
Mar 16
Full
Mar 23
Last Quarter
Mar 30
New

Hourly Weather History & Observations

Time (MST) Temp. Windchill Dew Point Humidity Pressure Visibility Wind Dir Wind Speed Gust Speed Precip Events Conditions
12:58 AM -14.3 °F - -19.8 °F 76% 30.65 in 10.0 mi SE 2.3 mph - N/A   Clear
1:08 AM -14.8 °F - -20.2 °F 77% 30.33 in 2.0 mi SE 2.3 mph - N/A   Haze
1:13 AM -14.8 °F - -20.2 °F 77% 30.33 in 3.0 mi ESE 2.3 mph - N/A   Haze
1:18 AM -14.8 °F - -20.2 °F 77% 30.33 in 2.5 mi SE 2.3 mph - N/A   Haze
1:23 AM -14.8 °F -24.8 °F -20.2 °F 77% 30.33 in 1.8 mi SE 3.5 mph - N/A   Haze
1:28 AM -14.8 °F -27.2 °F -20.2 °F 77% 30.32 in 1.2 mi SE 4.6 mph - N/A   Haze
1:38 AM -14.8 °F -27.2 °F -20.2 °F 77% 30.32 in 1.5 mi SE 4.6 mph - N/A   Haze
1:48 AM -14.8 °F -27.2 °F -20.2 °F 77% 30.32 in 1.8 mi SSE 4.6 mph - N/A   Haze
1:53 AM -14.8 °F -29.1 °F -20.2 °F 77% 30.32 in 3.0 mi SE 5.8 mph - N/A   Haze
1:58 AM -14.3 °F -30.1 °F -20.0 °F 75% 30.63 in 10.0 mi SSE 6.9 mph - N/A   Scattered Clouds
2:58 AM -12.3 °F -26.1 °F -17.7 °F 77% 30.63 in 10.0 mi SSE 5.8 mph - N/A   Overcast
3:58 AM -11.4 °F -25.1 °F -17.0 °F 76% 30.61 in 10.0 mi SSE 5.8 mph - N/A   Overcast
4:58 AM -11.4 °F -26.7 °F -16.8 °F 77% 30.63 in 10.0 mi South 6.9 mph - N/A   Overcast
5:58 AM -11.4 °F -23.2 °F -16.8 °F 77% 30.63 in 10.0 mi SE 4.6 mph - N/A   Overcast
6:58 AM -12.1 °F -25.9 °F -17.7 °F 76% 30.65 in 10.0 mi SE 5.8 mph - N/A   Scattered Clouds
7:38 AM -11.2 °F -20.6 °F -16.6 °F 77% 30.32 in 10.0 mi SE 3.5 mph - N/A   Overcast
7:58 AM -11.6 °F -25.3 °F -17.0 °F 77% 30.65 in 10.0 mi ESE 5.8 mph - N/A   Scattered Clouds
8:58 AM -9.4 °F -26.8 °F -14.8 °F 77% 30.63 in 10.0 mi SE 9.2 mph - N/A   Clear
9:20 AM -9.4 °F -25.6 °F -13.0 °F 84% 30.31 in 0.5 mi SE 8.1 mph - N/A Snow Snow
9:25 AM -7.6 °F -24.6 °F -13.0 °F 77% 30.31 in 0.2 mi SE 9.2 mph - N/A Snow Heavy Snow
9:29 AM -7.6 °F -24.6 °F -13.0 °F 77% 30.32 in 1.0 mi SE 9.2 mph - N/A   Haze
9:34 AM -7.6 °F -25.7 °F -13.0 °F 77% 30.32 in 10.0 mi SE 10.4 mph - N/A   Clear
9:58 AM -8.0 °F -27.1 °F -13.4 °F 77% 30.63 in 10.0 mi SE 11.5 mph - 0.00 in   Clear
10:53 AM -5.8 °F -25.2 °F -13.0 °F 71% 30.30 in 10.0 mi South 12.7 mph - N/A   Partly Cloudy
10:58 AM -5.6 °F -24.1 °F -12.5 °F 72% 30.61 in 10.0 mi South 11.5 mph - N/A   Partly Cloudy
11:33 AM -4.0 °F -23.0 °F -11.2 °F 71% 30.29 in 10.0 mi South 12.7 mph - N/A   Mostly Cloudy
11:58 AM -3.6 °F -22.5 °F -10.7 °F 72% 30.60 in 10.0 mi South 12.7 mph - N/A   Overcast
12:13 PM -2.2 °F -21.5 °F -9.4 °F 71% 30.28 in 10.0 mi South 13.8 mph - N/A   Overcast
12:18 PM -2.2 °F -20.7 °F -9.4 °F 71% 30.27 in 10.0 mi South 12.7 mph - N/A   Mostly Cloudy
12:28 PM -2.2 °F -19.9 °F -9.4 °F 71% 30.28 in 10.0 mi South 11.5 mph - N/A   Scattered Clouds
12:58 PM -0.8 °F -19.6 °F -8.3 °F 70% 30.56 in 10.0 mi SSE 13.8 mph - N/A   Clear
1:27 PM -0.4 °F -18.4 °F -7.6 °F 72% 30.25 in 10.0 mi SSE 12.7 mph - N/A   Partly Cloudy
1:58 PM 0.1 °F -16.0 °F -6.7 °F 73% 30.56 in 10.0 mi SE 10.4 mph - N/A   Clear
2:12 PM -0.4 °F -14.7 °F -7.6 °F 72% 30.27 in 10.0 mi SE 8.1 mph - N/A   Partly Cloudy
2:58 PM 1.6 °F -15.1 °F -6.0 °F 71% 30.52 in 10.0 mi ESE 11.5 mph - 0.01 in   Scattered Clouds
3:12 PM 1.4 °F -16.1 °F -5.8 °F 72% 30.22 in 10.0 mi ESE 12.7 mph - N/A   Scattered Clouds
3:17 PM 1.4 °F -16.1 °F -5.8 °F 72% 30.22 in 10.0 mi ESE 12.7 mph - N/A   Mostly Cloudy
3:20 PM -0.4 °F -18.4 °F -5.8 °F 78% 30.23 in 10.0 mi ESE 12.7 mph - N/A   Mostly Cloudy
3:40 PM -0.4 °F -18.4 °F -5.8 °F 78% 30.23 in 10.0 mi ESE 12.7 mph - N/A   Scattered Clouds
3:58 PM -0.2 °F -20.3 °F -6.9 °F 73% 30.50 in 10.0 mi ESE 16.1 mph - N/A   Clear
4:58 PM -2.0 °F -21.2 °F -7.8 °F 76% 30.48 in 10.0 mi ESE 13.8 mph - N/A   Clear
5:58 PM -4.2 °F -22.3 °F -9.9 °F 76% 30.50 in 10.0 mi ESE 11.5 mph - N/A   Clear
6:58 PM -5.6 °F -23.2 °F -11.2 °F 77% 30.51 in 10.0 mi ESE 10.4 mph - N/A   Clear
7:58 PM -5.1 °F -24.3 °F -10.5 °F 78% 30.46 in 10.0 mi SSE 12.7 mph - N/A   Clear
8:58 PM -6.3 °F -23.1 °F -11.6 °F 78% 30.45 in 10.0 mi SE 9.2 mph - N/A   Clear
9:58 PM -6.5 °F -23.3 °F -11.4 °F 79% 30.42 in 10.0 mi ESE 9.2 mph - N/A   Clear
10:58 PM -6.3 °F -20.6 °F -11.2 °F 79% 30.39 in 10.0 mi SE 6.9 mph - N/A   Clear
11:58 PM -5.3 °F -20.6 °F -10.1 °F 80% 30.34 in 10.0 mi SSE 8.1 mph - N/A   Clear